Weather in Dniprovka

Ukraine / Zaporizhia Region     48°04′40″N   35°10′36″E
temp.,
°C
wind,
m/s
gust,
m/s
humid.,
%
clouds,
%
prec.,
mm/h
press.,
hPa
HPBL,
m
2 march, tue
tue223:000nw238014 0.0 102953
02:000nw347939 0.0 103089
05:00−1wnw348827 0.0 1028112
08:00+1w477632 0.0 1028431
11:00+4wsw696474 0.0 1026804
14:00+5wsw8116487 0.0 1023886
17:00+4wsw61374100 0.0 1020722
20:00+3wnw6118392 0.0 1020690
3 march, wed
wed323:00+1wnw61192100 0.0 1019672
02:00+2nw71296100 0.2 1019759
05:00+1nnw6118293 0.1 1020801
08:00+1nnw6108054 0.1 1023673
11:00+4nnw79614 0.0 10241139
14:00+6nw710509 0.0 10251441
17:00+4nw48550 0.0 1024435
20:00+2wnw48750 0.0 1026182
4 march, thu
thu423:000w33770 0.0 102566
02:000sw35800 0.0 1025111
05:000sw47840 0.0 1023189
08:00+2sw510700 0.0 1022394
11:00+6sw710530 0.0 1019900
14:00+8sw812580 0.0 10161098
17:00+7sw7136914 0.0 1014688
20:00+5sw8157841 0.0 1014688
5 march, fri
fri523:00+3sw7158618 0.0 1013546
02:00+3sw6139135 0.0 1013395
05:00+2sw5109671 0.0 1013329
08:00+3sw589385 0.0 1013349
11:00+6ssw5882100 0.0 1012450
14:00+9sw61072100 0.0 1011846
17:00+9sw487595 0.0 1010231
20:00+7ssw5108289 0.0 1011293
6 march, sat
sat623:00+5w3494100 0.0 1011126
02:00+4n3595100 0.0 1012177
05:00+2nnw7996100 0.4 1014410
08:00+1n6983100 0.5 1015630
11:00+2n6855100 0.0 1017967
14:00+3n7848100 0.0 10171456
17:00+1nnw7956100 0.0 10191258
20:00−1nnw51057100 0.0 10211000